Regional Weather Roundup
Issued by NWS Boston, MA

Home | Current Version | Previous Version | Text Only | Print | Product List | Glossary On
Versions: 1 2 3 4 5 6 7 8 9 10 11 12 13 14 15 16 17 18 19 20 21 22 23 24 25 26 27
000
ASUS41 KBOX 251010
RWRBOX

REGIONAL WEATHER ROUNDUP
NATIONAL WEATHER SERVICE TAUNTON MA
600 AM EDT SAT OCT 25 2014

NOTE:  "FAIR" INDICATES FEW OR NO CLOUDS BELOW 12,000 FEET WITH NO
SIGNIFICANT WEATHER AND/OR OBSTRUCTIONS TO VISIBILITY.  THE FOLLOWING
OBSERVATION LOCATIONS DO NOT REPORT PRESENT WEATHER...PROVINCETOWN...
SMITHFIELD...BLOCK ISLAND...KEENE...AND OXFORD.

MAZALL-251100-
EASTERN MASSACHUSETTS

CITY           SKY/WX    TMP DP  RH WIND       PRES   REMARKS
BOSTON         CLEAR     48  40  73 W8        29.75S
BEVERLY        PTCLDY    45  40  82 W5        29.73F
LAWRENCE       CLEAR     45  39  79 SW6       29.75F
BEDFORD        CLEAR     40  38  93 CALM      29.74S
BLUE HILL        N/A     43  40  89 W12       29.74S
NORWOOD        CLEAR     43  40  89 CALM      29.76R
MARSHFIELD     NOT AVBL
PLYMOUTH       CLEAR     43  41  93 SW5       29.77R
TAUNTON        CLEAR     39  37  92 CALM      29.77R
NEW BEDFORD    FAIR      43  40  89 CALM      29.77R
$$

MAZALL-251100-
CAPE COD AND THE ISLANDS

CITY           SKY/WX    TMP DP  RH WIND       PRES   REMARKS
FALMOUTH       CLEAR     43  41  93 W6        29.76R
HYANNIS        CLEAR     45  42  89 W6        29.74R
CHATHAM        CLEAR     46  44  93 SW3       29.75R
PROVINCETOWN   PTCLDY    50  -2  11 NW10      29.74S
NANTUCKET      CLEAR     47  43  86 W6        29.76R
MARTHAS VNYRD  PTCLDY    46  43  89 NW7       29.77R
$$

MAZALL-251100-
CENTRAL AND WESTERN MASSACHUSETTS

CITY           SKY/WX    TMP DP  RH WIND       PRES   REMARKS
WORCESTER      CLEAR     43  36  76 W12       29.76S
FITCHBURG      CLEAR     40  36  86 CALM      29.77R
ORANGE         FOG       35  34  96 CALM      29.78S VSB 1/2
SPRINGFIELD    MOCLDY    37  36  97 CALM      29.79S
WESTFIELD      MOCLDY    43  40  89 CALM      29.80R
NORTH ADAMS    CLOUDY    38  38 100 NW6       29.83S
PITTSFIELD     CLOUDY    44  40  85 NW10      29.81S
$$

RIZALL-251100-
RHODE ISLAND

CITY           SKY/WX    TMP DP  RH WIND       PRES   REMARKS
PROVIDENCE     PTCLDY    45  39  79 W5        29.79R
NEWPORT        CLEAR     48  40  73 CALM      29.78S
BLOCK ISLAND   CLEAR     50  39  66 N8        29.80R
SMITHFIELD     CLEAR     43  32  65 W3        29.77R
WESTERLY       CLEAR     43  41  93 CALM      29.81R
$$

CTZALL-251100-
CONNECTICUT

CITY           SKY/WX    TMP DP  RH WIND       PRES   REMARKS
BRADLEY INTL   CLOUDY    44  39  82 CALM      29.80R
HARTFORD       MOCLDY    43  41  93 SE6       29.81S
BRIDGEPORT     MOCLDY    49  41  74 NW6       29.83R
DANBURY        PTCLDY    37  34  89 CALM      29.86R
GROTON         PTCLDY    40  40 100 CALM      29.81R
NEW HAVEN      PTCLDY    47  39  74 CALM      29.83R
CHESTER        NOT AVBL
MERIDEN        MOCLDY    41  39  93 CALM      29.83R
WILLIMANTIC    PTCLDY    39  37  92 CALM      29.81R
OXFORD         CLEAR     46  36  66 NW7       29.83S
$$

MEZ002-015-021-024-NHZ003-005-008-011-012-014-VTZ005-008-251100-
NORTHERN NEW ENGLAND

CITY           SKY/WX    TMP DP  RH WIND       PRES   REMARKS
PORTLAND ME    CLOUDY    48  39  71 SW3       29.71R
BANGOR ME      MOCLDY    44  39  82 W6        29.66R
CONCORD NH     CLEAR     39  36  89 CALM      29.74S
MANCHESTER NH  PTCLDY    43  36  76 CALM      29.73S
NASHUA NH      CLEAR     40  39  96 CALM      29.75S
PORTSMOUTH NH  PTCLDY    45  39  79 S1        29.71S
JAFFREY NH     CLEAR     39  36  89 CALM      29.76S
KEENE NH       CLOUDY    37  30  75 CALM      29.79R VSB<1/4
BURLINGTON VT  PTCLDY    36  33  89 CALM      29.78S
MT. WASHINGTON PTCLDY    32  23  69 NW45        N/A  WCI  15
$$

NYZ052-076-251100-
EASTERN NEW YORK

CITY           SKY/WX    TMP DP  RH WIND       PRES   REMARKS
ALBANY         PTCLDY    44  40  85 CALM      29.84S
NEW YORK CITY  PTCLDY    53  38  56 W9        29.86R
$$

ANZALL-251100-
MARINE OBSERVATIONS

STATION/POSITION TIME  TEMP    WIND        PRES    VSBY  WAVE
                       AIR SEA DIR/SP/G                  HT/PER
                 (UTC) (F)     (DEG/KT/KT) (MB)    (MI)  (FT/S)
BOSTON BUOY      NOT AVBL
BUZZARDS BAY     NOT AVBL
NANTUCKET SOUND  NOT AVBL
MASS BAY-STELLWA NOT AVBL
ISLE OF SHOALS   NOT AVBL
S OF BLOCK IS    NOT AVBL
$$

......................KEY.........................
  SKY/WX - SKY CONDITION/PRESENT WEATHER
  TMP    - TEMPERATURE IN FAHRENHEIT
  DWPT   - DEWPOINT IN FAHRENHEIT
  RH     - RELATIVE HUMIDITY IN PERCENT
  WIND   - DIRECTION AND SPEED IN MPH
  PRES   - MEAN SEA LEVEL PRESSURE IN INCHES OF HG
  WCI    - WIND CHILL INDEX
  VSB    - VISIBILITY IN MILES
  HX     - HEAT INDEX
  TC     - TEMPERATURE IN CELSIUS
  VRB    - VARIABLE WIND DIRECTION
  N/A    - NOT AVAILABLE



USA.gov is the U.S. government's official web portal to all federal, state and local government web resources and services.